Theta_e
329 329 329 329 329 329 327 327 328 328 329 330 332 332 331 331 326 307 304 315 326 343 348 331 321 321 319 314 313 311 296 293 296 296 293 296 293 294 294 291 292 292 290 292 295
329 329 329 328 329 327 326 326 327 328 329 330 331 331 331 329 312 304 321 345 346 349 322 316 312 313 307 306 306 301 295 296 300 295 290 292 293 292 290 289 288 290 291 293 292
328 328 329 329 328 327 326 326 327 327 329 330 330 330 330 322 304 303 333 342 343 339 321 318 315 312 304 304 302 300 295 297 295 294 293 291 290 293 289 286 288 287 287 290 289
328 328 329 328 327 327 326 325 326 328 329 330 330 329 328 307 296 306 336 339 340 317 315 313 311 304 299 298 301 296 297 299 298 298 295 290 291 288 289 288 291 290 288 289 288
327 328 328 328 327 327 326 326 327 329 330 329 329 330 309 301 300 310 331 322 311 312 307 310 305 303 298 298 299 293 294 294 294 293 292 292 289 288 287 289 290 291 289 287 287
327 328 328 327 326 327 326 326 329 329 328 328 330 326 303 295 308 308 307 309 309 308 305 305 305 304 300 298 297 297 294 292 293 292 292 289 288 290 288 289 288 288 286 286 286
326 327 327 326 325 326 326 326 326 326 325 328 328 308 300 298 306 305 307 306 308 306 304 304 306 305 300 297 300 296 291 291 291 291 289 290 285 284 287 288 286 284 283 285 286
324 325 325 324 325 326 325 325 324 325 326 328 327 303 296 307 306 305 306 306 308 307 306 305 305 301 299 300 297 293 291 286 290 291 290 289 280 286 286 286 283 282 281 283 285
324 324 324 324 324 325 324 325 326 327 329 326 305 299 295 312 303 304 302 303 305 306 305 306 301 295 294 292 288 287 282 285 288 292 290 287 280 285 286 285 282 281 281 282 284
323 322 322 322 324 324 322 325 323 317 310 308 306 298 300 299 303 303 302 304 304 303 300 297 293 289 287 286 281 282 282 284 284 287 286 283 281 284 285 283 280 280 280 281 284
321 321 320 322 323 322 315 309 302 300 301 297 297 298 300 303 303 301 302 303 302 297 291 292 289 283 285 286 288 286 284 283 284 288 284 282 282 283 283 281 280 281 281 281 283
321 320 320 321 320 318 310 305 301 303 297 301 301 300 302 300 297 300 303 298 294 290 292 288 284 288 292 289 288 287 283 281 285 288 284 282 281 283 282 280 280 280 280 280 284
320 319 319 319 318 311 307 307 311 307 297 300 300 299 300 301 295 296 299 297 292 289 287 284 286 292 291 286 285 285 282 281 282 285 285 282 278 278 281 280 282 282 280 283 284
318 318 319 318 311 307 307 311 311 308 291 296 298 300 301 301 296 300 298 297 293 289 289 286 289 288 287 286 285 281 287 285 284 281 277 282 272 275 277 278 280 279 281 283 285
317 317 317 316 306 308 309 311 310 306 284 298 298 304 301 296 296 297 298 296 289 288 290 284 285 284 284 285 286 284 286 284 285 281 279 278 273 271 275 276 278 280 281 283 286
316 317 317 310 308 308 311 310 308 296 283 295 298 296 296 297 296 297 293 294 293 290 288 286 289 287 285 287 287 287 283 284 283 281 274 275 274 269 272 275 278 280 282 283 286
317 316 313 311 306 309 309 305 294 286 295 292 293 295 293 292 292 292 288 285 282 283 281 284 284 287 288 283 285 282 277 274 275 273 272 276 272 271 276 278 279 280 281 284 285
314 314 311 310 307 307 305 299 288 293 291 297 295 294 291 292 290 288 286 283 285 283 280 279 281 283 287 282 278 279 276 272 271 270 271 277 270 272 278 280 281 282 283 285 284
312 305 305 306 307 307 302 292 289 292 296 295 293 289 289 292 290 287 282 283 284 284 279 278 279 285 286 285 281 279 274 277 274 272 269 272 272 277 279 279 280 281 283 283 283
301 303 303 306 306 303 296 292 291 295 295 295 288 290 287 288 287 286 283 285 286 287 284 280 278 284 286 285 283 279 280 273 272 265 266 268 267 269 274 276 279 280 281 283 283
303 301 305 304 305 298 291 289 292 295 295 292 290 289 289 288 286 283 283 286 288 288 286 280 280 279 282 278 276 276 274 274 273 271 264 264 268 274 274 277 278 279 282 282 283
300 296 305 305 296 289 289 292 297 293 294 293 292 291 289 289 286 284 284 285 289 288 282 283 279 274 276 280 281 278 275 274 268 267 268 265 269 277 277 279 280 280 283 283 284
298 297 303 304 291 286 289 291 292 292 290 291 290 292 291 288 285 286 285 289 289 285 280 283 278 274 274 277 280 277 276 276 273 270 266 262 268 278 279 279 281 281 282 282 283
299 294 297 296 293 290 288 288 288 291 290 291 290 291 289 287 288 285 285 289 289 287 292 287 278 277 274 276 277 275 277 277 272 264 264 268 270 275 277 278 280 281 281 282 282
299 295 294 290 291 289 289 289 287 286 289 290 288 290 288 283 285 284 285 284 287 289 284 283 277 277 276 278 278 277 277 276 268 272 266 271 271 273 276 277 280 281 281 281 281
296 295 292 287 292 291 289 286 288 288 287 287 288 287 288 286 286 285 285 283 282 282 280 281 277 276 275 278 277 276 277 277 277 275 273 273 272 276 279 280 281 280 281 280 281
297 299 296 290 291 289 288 289 290 288 287 288 288 285 283 284 284 282 283 282 282 281 279 279 277 275 274 276 276 274 276 276 275 275 274 271 273 277 279 280 280 279 280 280 281
Wind_Speed
10 9 8 7 6 5 5 5 4 5 6 7 8 8 8 9 8 6 10 7 8 18 11 7 4 3 3 2 6 4 7 3 3 6 6 2 5 7 4 10 11 4 4 3 4
10 8 8 7 5 5 5 4 5 7 7 8 7 7 7 7 3 7 7 13 15 12 3 4 5 8 4 4 5 7 5 3 2 5 5 6 8 6 5 6 7 7 6 7 6
10 9 9 6 5 4 4 4 6 8 8 8 7 7 6 2 5 5 12 19 18 9 5 1 0 2 7 6 7 5 5 4 7 16 16 12 11 3 8 6 2 4 3 5 5
11 10 8 7 5 4 4 5 7 8 9 10 8 8 7 1 1 6 17 18 15 8 1 3 3 5 6 6 4 9 7 5 8 4 5 5 5 7 7 5 6 4 1 6 10
11 9 9 8 6 5 5 7 8 8 8 9 8 7 3 8 1 8 15 12 8 6 8 3 6 5 6 8 9 10 4 8 12 15 10 13 9 9 6 6 6 7 10 9 8
11 10 10 9 8 7 7 7 8 8 7 9 8 3 7 8 6 8 10 7 7 5 7 8 3 6 8 5 5 7 12 14 7 9 7 13 5 5 5 5 9 11 10 9 10
11 10 10 9 9 8 7 8 9 8 7 6 8 4 9 4 3 8 8 3 5 4 7 5 3 7 6 8 6 16 9 6 6 6 7 16 10 5 1 9 10 10 9 9 8
11 11 10 9 9 9 8 8 9 10 10 6 6 5 3 3 3 8 10 6 8 5 4 10 8 9 7 9 5 5 5 3 7 7 6 4 2 3 4 8 7 8 8 8 9
10 10 11 10 9 10 11 9 9 10 5 7 5 6 3 8 8 6 6 5 7 5 11 7 9 7 9 4 4 5 2 3 4 2 5 5 4 3 2 8 7 7 8 9 10
10 10 11 11 8 10 15 3 6 8 6 3 4 6 8 7 6 6 6 5 4 4 8 12 8 6 6 8 2 4 2 3 4 2 10 12 6 4 5 7 5 8 9 9 13
11 10 11 12 9 7 8 4 6 9 12 6 0 4 4 9 3 10 6 5 7 10 5 8 12 6 5 3 7 3 3 4 1 5 7 8 7 7 4 5 9 8 12 11 13
11 10 10 11 11 11 2 6 3 6 7 3 4 2 3 2 6 21 11 8 10 5 2 8 8 8 5 10 5 3 4 4 2 7 8 5 5 2 6 4 4 8 9 10 14
10 9 9 10 11 5 5 5 2 4 7 3 2 3 3 6 6 12 8 3 7 10 11 9 5 8 5 6 10 4 6 3 6 6 8 10 3 5 5 5 7 10 8 12 16
9 8 9 13 5 1 3 3 3 2 7 10 7 6 5 3 6 3 6 2 7 5 5 7 5 5 4 4 5 4 3 8 6 6 4 4 2 3 7 8 12 10 14 15 18
9 9 10 4 2 3 2 2 2 5 5 6 5 2 5 7 1 13 6 9 6 5 4 1 7 9 5 5 4 8 13 3 4 5 4 3 6 7 5 10 17 17 15 16 17
9 8 9 4 3 1 2 3 4 7 2 3 3 4 5 9 6 5 10 9 3 7 9 3 2 4 4 6 3 13 5 6 5 3 3 4 4 4 7 9 14 14 17 17 18
9 10 3 1 2 2 2 4 6 6 2 0 2 3 4 5 5 8 5 11 6 4 6 1 3 5 4 7 8 11 7 5 5 6 4 2 7 4 6 7 9 15 16 18 15
10 7 4 1 1 3 4 6 6 3 1 2 2 3 4 2 5 8 4 6 5 4 4 4 5 8 10 4 4 6 5 4 4 3 6 4 4 4 3 6 9 12 15 17 19
5 3 2 3 1 3 6 5 6 3 1 5 3 3 3 3 5 6 4 2 2 5 4 2 3 2 4 4 3 6 6 1 1 2 3 3 4 2 18 16 15 17 17 18 21
3 2 2 2 3 5 7 4 3 1 1 1 3 0 3 5 3 5 2 2 4 3 1 0 4 3 4 5 6 7 2 3 5 5 6 4 1 4 15 15 17 19 20 19 21
3 4 4 2 4 7 5 4 3 1 1 1 3 4 3 3 3 2 1 1 2 5 1 1 2 2 4 6 3 7 6 5 5 3 4 5 4 2 8 12 17 17 17 19 21
3 3 3 3 6 2 3 4 4 2 4 2 4 4 3 3 3 2 2 1 4 2 2 2 4 4 1 1 4 3 3 4 6 6 1 4 8 3 6 14 14 16 17 18 18
3 2 3 4 5 2 1 4 3 2 2 2 3 2 3 3 4 2 2 1 4 2 1 1 3 3 1 3 1 4 2 4 4 4 3 4 8 4 15 14 14 15 15 18 20
3 3 5 6 2 9 6 3 3 2 2 3 4 3 4 3 5 5 3 1 1 1 1 1 3 5 6 4 3 2 3 3 4 4 3 7 9 9 14 15 17 15 14 19 19
4 2 2 2 1 6 5 5 5 3 1 1 3 1 5 4 2 3 2 1 1 0 2 3 4 2 1 2 2 2 3 5 4 4 6 6 5 5 11 11 13 13 17 19 20
5 5 4 1 3 7 3 4 5 3 2 1 6 2 2 5 3 8 6 4 3 1 2 3 2 2 1 3 3 3 4 6 5 3 6 5 7 3 9 8 14 12 17 19 20
1 2 6 5 2 5 5 7 8 9 2 3 9 6 6 2 4 4 6 6 5 4 2 3 4 3 0 2 2 5 4 2 1 1 4 4 4 5 12 13 13 12 16 18 20
Wind_Direction
1 2 357 0 358 3 3 358 349 339 339 334 341 345 336 332 320 22 39 254 285 287 309 287 324 346 80 32 48 73 62 51 151 161 157 225 120 40 52 77 54 67 102 215 291
2 2 5 1 2 5 355 346 333 324 328 333 342 331 333 335 62 20 281 317 316 299 296 332 353 350 46 36 30 71 88 153 7 100 102 63 74 84 76 54 43 45 22 14 9
1 7 6 358 3 3 344 324 310 312 325 325 328 322 316 304 69 309 317 330 330 325 222 229 328 67 47 39 6 38 109 116 61 111 101 89 65 94 119 49 83 92 27 349 347
359 11 4 1 359 351 304 296 305 315 318 319 323 319 313 103 67 279 324 326 327 343 99 29 63 62 65 51 13 95 35 108 166 131 100 85 88 80 73 99 116 104 46 10 6
357 10 5 359 350 319 301 307 312 312 311 309 308 301 77 47 356 283 319 330 345 1 46 48 57 91 100 122 76 87 119 58 99 91 83 101 88 92 73 87 71 40 23 12 355
358 8 0 355 341 319 313 313 309 305 314 330 325 302 71 65 260 317 319 334 358 24 17 36 84 109 108 67 75 114 107 120 111 100 106 103 68 87 10 54 36 31 7 358 348
359 2 351 350 340 329 327 327 315 307 307 325 332 79 67 151 297 329 336 307 355 3 29 350 55 81 111 87 104 121 102 86 143 143 130 111 43 71 8 54 35 17 359 338 321
356 357 342 346 337 331 326 309 296 304 306 301 318 76 81 316 335 2 345 333 359 1 47 33 40 80 51 120 89 90 117 143 209 168 181 49 123 57 55 67 29 9 334 326 323
350 353 338 335 332 326 315 303 304 311 291 296 51 88 343 324 9 328 6 325 312 22 30 45 58 69 18 64 53 18 213 123 111 179 99 62 142 115 73 69 23 333 337 328 325
343 348 335 323 331 328 318 312 318 6 4 28 66 50 3 309 312 329 319 348 25 30 21 31 50 66 19 40 285 272 16 63 96 120 58 95 121 162 67 73 348 342 323 330 338
339 344 335 324 333 340 346 20 24 2 30 97 96 116 278 299 330 343 348 7 15 50 67 16 55 27 14 332 252 226 115 59 322 149 93 111 130 167 78 51 13 350 356 336 316
333 344 341 328 329 332 82 82 140 171 77 60 87 66 325 28 17 354 9 65 34 61 28 40 40 323 207 11 7 47 118 32 352 112 93 141 142 162 64 12 345 344 332 313 333
331 345 340 329 322 28 80 124 29 108 89 0 77 65 332 45 46 338 24 77 76 56 51 90 296 298 22 12 14 352 115 154 206 100 51 128 50 43 337 345 347 358 309 331 343
340 347 348 321 57 239 54 341 28 103 79 329 346 0 7 103 54 357 4 48 45 140 95 73 331 8 4 18 20 315 160 302 216 147 202 197 274 358 339 329 357 341 348 340 339
344 358 352 13 180 77 184 334 349 57 68 322 344 300 9 84 288 354 2 35 67 16 110 329 354 4 6 328 310 259 319 266 158 146 110 147 82 302 324 342 352 347 338 340 341
339 354 345 34 44 263 347 28 51 48 110 8 2 16 36 15 24 356 20 33 62 62 40 93 35 47 271 299 311 316 7 34 55 89 55 327 141 321 357 324 337 342 338 339 344
334 341 36 96 194 292 29 51 48 90 312 47 45 43 79 16 36 28 42 33 38 34 25 84 1 322 23 353 353 7 36 356 355 6 233 158 59 218 294 323 320 331 336 343 348
323 335 342 152 173 80 56 55 81 163 190 216 126 84 77 15 35 14 52 34 24 30 67 25 6 8 339 46 296 0 65 113 272 292 295 348 141 203 242 317 333 337 340 344 347
330 5 27 285 139 70 76 64 184 187 146 145 69 93 21 21 108 79 55 16 343 21 95 58 36 326 5 13 17 332 32 269 88 352 14 287 341 340 359 351 345 344 347 348 349
63 56 303 284 94 64 76 152 161 62 43 120 134 191 130 344 71 65 18 341 322 43 5 239 96 356 341 13 20 83 311 12 16 34 315 306 308 279 336 337 345 347 348 347 345
54 68 259 17 63 49 120 173 140 199 155 101 147 105 91 120 80 74 344 50 352 320 37 37 89 320 40 18 316 351 14 31 108 98 175 304 267 30 289 341 343 341 342 346 343
97 75 285 71 55 35 112 130 146 133 16 68 97 91 106 86 83 121 170 255 354 321 58 351 114 76 63 7 84 71 92 99 111 281 118 153 279 133 306 360 342 335 343 343 341
107 179 327 95 129 75 99 63 64 117 49 95 101 75 65 110 103 126 156 205 9 56 146 317 30 81 326 329 31 71 45 95 97 73 220 123 275 326 351 344 341 340 340 340 341
91 77 333 50 78 129 137 139 108 8 91 92 119 100 96 75 31 154 150 244 10 75 183 99 82 138 182 213 150 163 172 121 124 104 215 231 290 330 330 340 338 337 338 341 342
37 216 212 186 327 115 106 132 129 139 40 93 60 114 146 121 109 136 124 26 339 264 72 91 108 110 102 162 173 237 190 186 166 181 149 273 279 303 324 327 322 330 339 342 346
133 131 22 70 91 106 90 169 138 147 99 177 131 47 101 137 188 188 139 180 177 117 69 11 155 116 140 233 242 287 260 209 218 181 262 292 304 324 306 308 334 336 341 342 344
209 53 101 295 63 93 200 171 174 133 96 19 139 103 66 78 106 83 84 82 109 128 126 82 118 88 185 212 345 308 216 184 128 223 220 263 258 302 329 337 326 326 340 340 343